time, beta470, beta532, beta650
yyyy/mm/dd HH:MM:SS.fff, counts, counts, counts
2023/06/15 08:00:04.411, 123, 154, 91
2023/06/15 08:00:05.547, 122, 149, 94
2023/06/15 08:00:06.683, 122, 151, 89
2023/06/15 08:00:07.803, 121, 155, 91
2023/06/15 08:00:08.939, 121, 157, 87
2023/06/15 08:00:10.059, 121, 155, 90
2023/06/15 08:00:11.195, 122, 153, 88
2023/06/15 08:00:12.331, 123, 154, 90
2023/06/15 08:00:13.450, 121, 152, 91
2023/06/15 08:00:14.587, 124, 156, 93
2023/06/15 08:00:15.706, 131, 150, 91
2023/06/15 08:00:16.842, 117, 148, 87
2023/06/15 08:00:17.978, 117, 151, 90
2023/06/15 08:00:19.098, 122, 148, 98
2023/06/15 08:00:20.234, 119, 149, 91
2023/06/15 08:00:21.354, 122, 154, 92
2023/06/15 08:00:22.489, 126, 157, 93
2023/06/15 08:00:23.626, 125, 164, 92
2023/06/15 08:00:24.746, 121, 153, 92
2023/06/15 08:00:25.882, 122, 153, 88
2023/06/15 08:00:27.002, 122, 147, 89
2023/06/15 08:00:28.138, 120, 151, 92
2023/06/15 08:00:29.274, 124, 151, 98
2023/06/15 08:00:30.394, 121, 148, 90
2023/06/15 08:00:31.530, 124, 150, 89
2023/06/15 08:00:32.649, 121, 149, 89
2023/06/15 08:00:33.785, 119, 154, 90
2023/06/15 08:00:34.905, 118, 153, 90
2023/06/15 08:00:36.041, 118, 150, 92
2023/06/15 08:00:37.177, 122, 151, 94
2023/06/15 08:00:38.297, 124, 152, 96
2023/06/15 08:00:39.433, 118, 154, 90
2023/06/15 08:00:40.553, 120, 147, 91
2023/06/15 08:00:41.688, 122, 146, 91
2023/06/15 08:00:42.825, 119, 148, 89
2023/06/15 08:00:43.945, 124, 149, 90
2023/06/15 08:00:45.081, 119, 145, 91
2023/06/15 08:00:46.201, 118, 143, 90
2023/06/15 08:00:47.337, 120, 147, 92
2023/06/15 08:00:48.472, 120, 150, 88
2023/06/15 08:00:49.592, 119, 147, 90
2023/06/15 08:00:50.728, 119, 151, 90
2023/06/15 08:00:51.848, 120, 149, 91
2023/06/15 08:00:52.984, 118, 153, 86
2023/06/15 08:00:54.104, 118, 147, 89
2023/06/15 08:00:55.240, 124, 150, 90
2023/06/15 08:00:56.376, 120, 150, 91
2023/06/15 08:00:57.496, 128, 149, 91
2023/06/15 08:00:58.632, 118, 146, 88
2023/06/15 08:00:59.751, 123, 154, 90
2023/06/15 08:01:00.887, 121, 150, 91
2023/06/15 08:01:02.023, 121, 150, 91
2023/06/15 08:01:03.144, 120, 156, 96
2023/06/15 08:01:04.280, 120, 150, 91
2023/06/15 08:01:05.399, 120, 160, 93
2023/06/15 08:01:06.535, 119, 179, 88
2023/06/15 08:01:07.671, 121, 168, 94
2023/06/15 08:01:08.791, 124, 152, 93
2023/06/15 08:01:09.927, 121, 152, 87
2023/06/15 08:01:11.047, 122, 151, 87
2023/06/15 08:01:12.183, 121, 151, 92
2023/06/15 08:01:13.319, 120, 147, 87
2023/06/15 08:01:14.439, 121, 148, 89
2023/06/15 08:01:15.575, 118, 146, 89
2023/06/15 08:01:16.695, 121, 149, 90
2023/06/15 08:01:17.831, 118, 150, 87
2023/06/15 08:01:18.967, 118, 149, 90
2023/06/15 08:01:20.087, 119, 146, 87
2023/06/15 08:01:21.222, 122, 145, 88
2023/06/15 08:01:22.342, 117, 148, 88
2023/06/15 08:01:23.478, 117, 149, 90
2023/06/15 08:01:24.614, 117, 148, 89
2023/06/15 08:01:25.734, 119, 151, 94
2023/06/15 08:01:26.870, 124, 151, 90
2023/06/15 08:01:27.990, 122, 152, 91
2023/06/15 08:01:29.126, 121, 149, 90
2023/06/15 08:01:30.246, 121, 149, 86
2023/06/15 08:01:31.382, 119, 146, 92
2023/06/15 08:01:32.518, 125, 150, 88
2023/06/15 08:01:33.637, 122, 154, 88
2023/06/15 08:01:34.774, 121, 161, 89
2023/06/15 08:01:35.894, 121, 158, 88
2023/06/15 08:01:37.029, 117, 159, 91
2023/06/15 08:01:38.165, 119, 158, 88
2023/06/15 08:01:39.285, 118, 152, 89
2023/06/15 08:01:40.421, 118, 161, 89
2023/06/15 08:01:41.541, 119, 156, 89
2023/06/15 08:01:42.677, 122, 150, 89
2023/06/15 08:01:43.813, 120, 143, 88
2023/06/15 08:01:44.933, 118, 150, 85
2023/06/15 08:01:46.069, 120, 153, 89
2023/06/15 08:01:47.189, 114, 153, 91
2023/06/15 08:01:48.325, 117, 149, 87
2023/06/15 08:01:49.445, 116, 150, 89
2023/06/15 08:01:50.581, 117, 150, 88
2023/06/15 08:01:51.717, 119, 153, 89
2023/06/15 08:01:52.837, 125, 150, 89
2023/06/15 08:01:53.972, 120, 150, 91
2023/06/15 08:01:55.093, 124, 156, 92
2023/06/15 08:01:56.228, 120, 155, 91
2023/06/15 08:01:57.364, 119, 156, 97
2023/06/15 08:01:58.484, 119, 148, 88
2023/06/15 08:01:59.620, 119, 146, 88
2023/06/15 08:02:00.740, 119, 148, 91
2023/06/15 08:02:01.876, 120, 146, 90
2023/06/15 08:02:03.012, 116, 153, 90
2023/06/15 08:02:04.132, 118, 147, 87
2023/06/15 08:02:05.268, 118, 147, 86
2023/06/15 08:02:06.388, 118, 148, 85
2023/06/15 08:02:07.524, 117, 147, 88
2023/06/15 08:02:08.660, 119, 151, 87
2023/06/15 08:02:09.780, 118, 150, 88
2023/06/15 08:02:10.916, 113, 147, 90
2023/06/15 08:02:12.035, 111, 148, 89
2023/06/15 08:02:13.172, 113, 144, 92
2023/06/15 08:02:14.308, 115, 143, 84
2023/06/15 08:02:15.427, 116, 144, 85
2023/06/15 08:02:16.563, 109, 204, 87
2023/06/15 08:02:17.683, 110, 166, 90
2023/06/15 08:02:18.819, 115, 137, 90
2023/06/15 08:02:19.955, 117, 144, 87
2023/06/15 08:02:21.075, 137, 146, 88
2023/06/15 08:02:22.211, 118, 139, 89
2023/06/15 08:02:23.331, 116, 145, 87
2023/06/15 08:02:24.467, 114, 145, 89
2023/06/15 08:02:25.603, 116, 145, 85
2023/06/15 08:02:26.722, 117, 144, 88
2023/06/15 08:02:27.858, 117, 140, 91
2023/06/15 08:02:28.978, 118, 142, 85
2023/06/15 08:02:30.114, 121, 144, 84
2023/06/15 08:02:31.234, 114, 147, 87
2023/06/15 08:02:32.370, 109, 144, 93
2023/06/15 08:02:33.506, 111, 141, 85
2023/06/15 08:02:34.626, 111, 131, 85
2023/06/15 08:02:35.761, 114, 136, 87
2023/06/15 08:02:36.882, 118, 137, 86
2023/06/15 08:02:38.018, 116, 143, 82
2023/06/15 08:02:39.154, 115, 140, 84
2023/06/15 08:02:40.274, 114, 140, 85
2023/06/15 08:02:41.410, 112, 141, 84
2023/06/15 08:02:42.530, 110, 134, 84
2023/06/15 08:02:43.666, 109, 129, 82
2023/06/15 08:02:44.785, 112, 136, 83
2023/06/15 08:02:45.921, 113, 138, 82
2023/06/15 08:02:47.057, 113, 135, 82
2023/06/15 08:02:48.177, 116, 142, 80
2023/06/15 08:02:49.313, 112, 141, 80
2023/06/15 08:02:50.433, 108, 140, 80
2023/06/15 08:02:51.569, 114, 137, 85
2023/06/15 08:02:52.704, 117, 133, 89
2023/06/15 08:02:53.824, 110, 150, 87
2023/06/15 08:02:54.961, 113, 147, 87
2023/06/15 08:02:56.081, 124, 144, 88
2023/06/15 08:02:57.217, 128, 144, 89
2023/06/15 08:02:58.352, 125, 148, 89
2023/06/15 08:02:59.473, 113, 144, 80
2023/06/15 08:03:00.608, 113, 135, 85
2023/06/15 08:03:01.728, 110, 139, 85
2023/06/15 08:03:02.864, 118, 139, 86
2023/06/15 08:03:03.000, 117, 136, 85
2023/06/15 08:03:05.120, 120, 143, 85
2023/06/15 08:03:06.256, 114, 140, 84
2023/06/15 08:03:07.375, 114, 133, 86
2023/06/15 08:03:08.512, 112, 136, 87
2023/06/15 08:03:09.648, 117, 141, 85
2023/06/15 08:03:10.768, 116, 141, 84
2023/06/15 08:03:11.904, 116, 136, 86
2023/06/15 08:03:13.024, 109, 133, 81
2023/06/15 08:03:14.160, 116, 138, 84
2023/06/15 08:03:15.295, 112, 138, 80
2023/06/15 08:03:16.415, 113, 138, 81
2023/06/15 08:03:17.551, 111, 138, 82
2023/06/15 08:03:18.671, 110, 136, 83
2023/06/15 08:03:19.807, 108, 141, 81
2023/06/15 08:03:20.943, 110, 140, 81
2023/06/15 08:03:22.063, 110, 144, 83
2023/06/15 08:03:23.198, 111, 149, 86
2023/06/15 08:03:24.319, 114, 150, 83
2023/06/15 08:03:25.454, 112, 135, 83
2023/06/15 08:03:26.575, 111, 139, 89
2023/06/15 08:03:27.711, 114, 136, 86
2023/06/15 08:03:28.847, 115, 138, 82
2023/06/15 08:03:29.967, 108, 135, 81
2023/06/15 08:03:31.103, 110, 136, 77
2023/06/15 08:03:32.222, 106, 136, 80
2023/06/15 08:03:33.358, 108, 136, 80
2023/06/15 08:03:34.494, 111, 136, 92
2023/06/15 08:03:35.614, 110, 127, 84
2023/06/15 08:03:36.750, 111, 131, 83
2023/06/15 08:03:37.870, 107, 144, 85
2023/06/15 08:03:39.006, 107, 131, 83
2023/06/15 08:03:40.142, 107, 134, 84
2023/06/15 08:03:41.262, 108, 132, 80
2023/06/15 08:03:42.398, 107, 134, 82
2023/06/15 08:03:43.518, 107, 128, 84
2023/06/15 08:03:44.654, 106, 130, 79
2023/06/15 08:03:45.773, 105, 124, 81
2023/06/15 08:03:46.910, 108, 135, 82
2023/06/15 08:03:48.045, 108, 134, 90
2023/06/15 08:03:49.165, 112, 132, 81
2023/06/15 08:03:50.301, 109, 136, 84
2023/06/15 08:03:51.421, 107, 134, 84
2023/06/15 08:03:52.557, 103, 135, 81
2023/06/15 08:03:53.693, 111, 130, 82
2023/06/15 08:03:54.813, 111, 133, 77
2023/06/15 08:03:55.949, 107, 132, 77
2023/06/15 08:03:57.069, 104, 131, 80
2023/06/15 08:03:58.205, 102, 139, 82
2023/06/15 08:03:59.341, 106, 125, 81
2023/06/15 08:04:00.460, 105, 123, 85
2023/06/15 08:04:01.597, 111, 132, 83
2023/06/15 08:04:02.717, 113, 133, 84
2023/06/15 08:04:03.853, 108, 134, 81
2023/06/15 08:04:04.989, 108, 134, 82
2023/06/15 08:04:06.108, 112, 131, 80
2023/06/15 08:04:07.244, 105, 133, 83
2023/06/15 08:04:08.364, 100, 132, 81
2023/06/15 08:04:09.500, 102, 130, 81
2023/06/15 08:04:10.636, 107, 129, 83
2023/06/15 08:04:11.756, 114, 135, 79
2023/06/15 08:04:12.892, 105, 132, 81
2023/06/15 08:04:14.012, 106, 129, 83
2023/06/15 08:04:15.148, 106, 131, 83
2023/06/15 08:04:16.284, 104, 130, 84
2023/06/15 08:04:17.404, 108, 129, 113
2023/06/15 08:04:18.540, 107, 127, 84
2023/06/15 08:04:19.660, 104, 126, 82
2023/06/15 08:04:20.796, 106, 123, 81
2023/06/15 08:04:21.931, 106, 123, 82
2023/06/15 08:04:23.051, 108, 127, 79
2023/06/15 08:04:24.187, 108, 129, 81
2023/06/15 08:04:25.307, 103, 134, 80
2023/06/15 08:04:26.443, 106, 134, 80
2023/06/15 08:04:27.579, 106, 132, 82
2023/06/15 08:04:28.699, 107, 130, 83
2023/06/15 08:04:29.835, 104, 129, 79
2023/06/15 08:04:30.955, 107, 129, 82
2023/06/15 08:04:32.091, 105, 127, 79
2023/06/15 08:04:33.211, 105, 124, 81
2023/06/15 08:04:34.347, 106, 127, 79
2023/06/15 08:04:35.482, 102, 130, 77
2023/06/15 08:04:36.602, 106, 130, 81
2023/06/15 08:04:37.739, 102, 126, 79
2023/06/15 08:04:38.858, 106, 124, 80
2023/06/15 08:04:39.994, 102, 126, 80
2023/06/15 08:04:41.130, 106, 129, 80
2023/06/15 08:04:42.250, 104, 129, 79
2023/06/15 08:04:43.386, 102, 354, 88
2023/06/15 08:04:44.506, 103, 426, 80
2023/06/15 08:04:45.641, 105, 290, 80
2023/06/15 08:04:46.778, 103, 128, 78
2023/06/15 08:04:47.898, 102, 126, 77
2023/06/15 08:04:49.034, 102, 131, 84
2023/06/15 08:04:50.153, 110, 132, 77
2023/06/15 08:04:51.290, 110, 129, 79
2023/06/15 08:04:52.426, 110, 126, 79
2023/06/15 08:04:53.545, 103, 127, 85
2023/06/15 08:04:54.681, 99, 124, 77
2023/06/15 08:04:55.801, 102, 118, 80
2023/06/15 08:04:56.937, 101, 121, 73
2023/06/15 08:04:58.073, 101, 120, 75
2023/06/15 08:04:59.193, 101, 124, 78
2023/06/15 08:05:00.329, 101, 130, 81
2023/06/15 08:05:01.449, 99, 121, 81
2023/06/15 08:05:02.585, 102, 119, 77
2023/06/15 08:05:03.705, 105, 120, 76
2023/06/15 08:05:04.841, 110, 119, 75
2023/06/15 08:05:05.977, 102, 125, 73
2023/06/15 08:05:07.097, 104, 124, 78
2023/06/15 08:05:08.232, 103, 124, 73
2023/06/15 08:05:09.353, 102, 123, 78
2023/06/15 08:05:10.488, 101, 122, 75
2023/06/15 08:05:11.624, 100, 123, 75
2023/06/15 08:05:12.744, 100, 127, 79
2023/06/15 08:05:13.880, 102, 123, 77
2023/06/15 08:05:15.000, 101, 124, 77
2023/06/15 08:05:16.136, 100, 117, 74
2023/06/15 08:05:17.272, 103, 121, 77
2023/06/15 08:05:18.392, 104, 121, 79
2023/06/15 08:05:19.528, 100, 122, 75
2023/06/15 08:05:20.648, 98, 124, 78
2023/06/15 08:05:21.784, 101, 123, 77
2023/06/15 08:05:22.904, 96, 116, 76
2023/06/15 08:05:24.040, 96, 116, 75
2023/06/15 08:05:25.175, 99, 122, 79
2023/06/15 08:05:26.296, 101, 118, 80
2023/06/15 08:05:27.431, 100, 123, 77
2023/06/15 08:05:28.552, 99, 118, 77
2023/06/15 08:05:29.687, 98, 120, 74
2023/06/15 08:05:30.807, 102, 122, 76
2023/06/15 08:05:31.943, 101, 121, 77
2023/06/15 08:05:33.063, 101, 122, 76
2023/06/15 08:05:34.199, 106, 121, 76
2023/06/15 08:05:35.335, 103, 120, 77
2023/06/15 08:05:36.455, 103, 122, 72
2023/06/15 08:05:37.591, 106, 122, 76
2023/06/15 08:05:38.711, 100, 121, 78
2023/06/15 08:05:39.846, 99, 116, 76
2023/06/15 08:05:40.983, 98, 115, 75
2023/06/15 08:05:42.103, 101, 117, 72
2023/06/15 08:05:43.238, 116, 118, 77
2023/06/15 08:05:44.358, 100, 117, 72
2023/06/15 08:05:45.494, 100, 118, 74
2023/06/15 08:05:46.614, 101, 118, 71
2023/06/15 08:05:47.750, 98, 116, 74
2023/06/15 08:05:48.886, 100, 116, 78
2023/06/15 08:05:50.006, 101, 114, 77
2023/06/15 08:05:51.142, 98, 115, 73
2023/06/15 08:05:52.261, 102, 115, 78
2023/06/15 08:05:53.398, 100, 112, 75
2023/06/15 08:05:54.534, 99, 116, 74
2023/06/15 08:05:55.654, 102, 118, 76
2023/06/15 08:05:56.790, 100, 121, 74
2023/06/15 08:05:57.910, 103, 118, 76
2023/06/15 08:05:59.045, 102, 121, 78
2023/06/15 08:06:00.165, 101, 121, 79
2023/06/15 08:06:01.301, 99, 127, 74
2023/06/15 08:06:02.437, 98, 123, 77
2023/06/15 08:06:03.557, 100, 118, 76
2023/06/15 08:06:04.693, 97, 120, 75
2023/06/15 08:06:05.814, 100, 118, 78
2023/06/15 08:06:06.949, 108, 118, 77
2023/06/15 08:06:08.069, 100, 114, 78
2023/06/15 08:06:09.205, 101, 119, 76
2023/06/15 08:06:10.340, 105, 117, 76
2023/06/15 08:06:11.461, 97, 118, 78
2023/06/15 08:06:12.597, 99, 120, 75
2023/06/15 08:06:13.717, 98, 119, 75
2023/06/15 08:06:14.852, 95, 121, 78
2023/06/15 08:06:15.972, 101, 117, 73
2023/06/15 08:06:17.108, 97, 118, 74
2023/06/15 08:06:18.244, 100, 118, 75
2023/06/15 08:06:19.364, 101, 119, 73
2023/06/15 08:06:20.500, 98, 116, 74
2023/06/15 08:06:21.621, 101, 115, 78
2023/06/15 08:06:22.756, 96, 113, 76
2023/06/15 08:06:23.876, 95, 112, 76
2023/06/15 08:06:25.012, 97, 111, 74
2023/06/15 08:06:26.148, 99, 112, 72
2023/06/15 08:06:27.268, 97, 110, 73
2023/06/15 08:06:28.403, 101, 113, 75
2023/06/15 08:06:29.524, 100, 118, 74
2023/06/15 08:06:30.660, 97, 119, 74
2023/06/15 08:06:31.780, 99, 116, 73
2023/06/15 08:06:32.915, 98, 115, 73
2023/06/15 08:06:34.035, 100, 115, 74
2023/06/15 08:06:35.171, 101, 117, 75
2023/06/15 08:06:36.291, 98, 114, 74
2023/06/15 08:06:37.427, 96, 115, 72
2023/06/15 08:06:38.563, 99, 116, 73
2023/06/15 08:06:39.683, 100, 117, 75
2023/06/15 08:06:40.819, 100, 120, 74
2023/06/15 08:06:41.939, 100, 115, 71
2023/06/15 08:06:43.075, 97, 117, 73
2023/06/15 08:06:44.195, 101, 115, 73
2023/06/15 08:06:45.331, 98, 118, 74
2023/06/15 08:06:46.466, 103, 116, 73
2023/06/15 08:06:47.587, 104, 114, 72
2023/06/15 08:06:48.723, 99, 114, 74
2023/06/15 08:06:49.842, 100, 116, 76
2023/06/15 08:06:50.978, 100, 112, 74
2023/06/15 08:06:52.114, 100, 113, 76
2023/06/15 08:06:53.234, 97, 110, 79
2023/06/15 08:06:54.370, 99, 112, 72
2023/06/15 08:06:55.489, 93, 112, 70
2023/06/15 08:06:56.626, 95, 113, 74
2023/06/15 08:06:57.746, 97, 110, 74
2023/06/15 08:06:58.882, 100, 111, 71
2023/06/15 08:07:00.001, 101, 115, 73
2023/06/15 08:07:01.138, 97, 115, 70
2023/06/15 08:07:02.274, 95, 112, 69
2023/06/15 08:07:03.394, 95, 114, 68
2023/06/15 08:07:04.529, 96, 121, 75
2023/06/15 08:07:05.649, 95, 116, 71
2023/06/15 08:07:06.785, 97, 115, 73
2023/06/15 08:07:07.905, 94, 107, 75
2023/06/15 08:07:09.040, 95, 111, 76
2023/06/15 08:07:10.161, 99, 113, 74
2023/06/15 08:07:11.297, 95, 110, 71
2023/06/15 08:07:12.417, 98, 112, 72
2023/06/15 08:07:13.553, 95, 110, 66
2023/06/15 08:07:14.689, 96, 115, 72
2023/06/15 08:07:15.809, 94, 111, 71
2023/06/15 08:07:16.945, 95, 111, 73
2023/06/15 08:07:18.064, 95, 115, 71
2023/06/15 08:07:19.201, 93, 110, 73
2023/06/15 08:07:20.321, 95, 110, 75
2023/06/15 08:07:21.456, 99, 110, 74
2023/06/15 08:07:22.576, 103, 114, 75
2023/06/15 08:07:23.712, 97, 112, 74
2023/06/15 08:07:24.848, 98, 112, 74
2023/06/15 08:07:25.968, 92, 106, 73
2023/06/15 08:07:27.104, 94, 112, 70
2023/06/15 08:07:28.224, 95, 119, 73
2023/06/15 08:07:29.360, 97, 112, 71
2023/06/15 08:07:30.480, 96, 110, 72
2023/06/15 08:07:31.616, 96, 110, 69
2023/06/15 08:07:32.736, 93, 111, 70
2023/06/15 08:07:33.872, 96, 109, 73
2023/06/15 08:07:34.992, 94, 108, 68
2023/06/15 08:07:36.128, 97, 108, 71
2023/06/15 08:07:37.248, 97, 111, 69
2023/06/15 08:07:38.383, 100, 112, 66
2023/06/15 08:07:39.519, 101, 114, 71
2023/06/15 08:07:40.639, 107, 113, 71
2023/06/15 08:07:41.775, 136, 110, 72
2023/06/15 08:07:42.895, 96, 110, 73
2023/06/15 08:07:44.031, 96, 115, 73
2023/06/15 08:07:45.151, 93, 115, 72
2023/06/15 08:07:46.287, 95, 114, 72
2023/06/15 08:07:47.423, 101, 114, 74
2023/06/15 08:07:48.543, 98, 114, 73
2023/06/15 08:07:49.679, 100, 111, 72
2023/06/15 08:07:50.799, 99, 114, 70
2023/06/15 08:07:51.935, 98, 111, 73
2023/06/15 08:07:53.055, 97, 110, 70
2023/06/15 08:07:54.190, 97, 111, 71
2023/06/15 08:07:55.310, 95, 112, 73
2023/06/15 08:07:56.446, 97, 118, 69
2023/06/15 08:07:57.566, 96, 114, 71
2023/06/15 08:07:58.702, 97, 112, 74
2023/06/15 08:07:59.838, 92, 110, 69
2023/06/15 08:08:00.957, 93, 106, 70
2023/06/15 08:08:02.094, 95, 106, 69
2023/06/15 08:08:03.214, 94, 103, 73
2023/06/15 08:08:04.349, 94, 105, 69
2023/06/15 08:08:05.469, 93, 109, 68
2023/06/15 08:08:06.606, 94, 107, 69
2023/06/15 08:08:07.726, 96, 110, 70
2023/06/15 08:08:08.861, 95, 108, 71
2023/06/15 08:08:09.981, 90, 109, 69
2023/06/15 08:08:11.117, 92, 104, 69
2023/06/15 08:08:12.253, 93, 106, 68
2023/06/15 08:08:13.373, 92, 106, 70
2023/06/15 08:08:14.509, 91, 109, 69
2023/06/15 08:08:15.629, 93, 106, 69
2023/06/15 08:08:16.765, 95, 107, 71
2023/06/15 08:08:17.885, 90, 108, 66
2023/06/15 08:08:19.021, 95, 108, 68
2023/06/15 08:08:20.141, 94, 107, 71
2023/06/15 08:08:21.276, 92, 104, 70
2023/06/15 08:08:22.397, 95, 104, 67
2023/06/15 08:08:23.533, 95, 104, 67
2023/06/15 08:08:24.668, 94, 106, 67
2023/06/15 08:08:25.788, 93, 107, 72
2023/06/15 08:08:26.924, 96, 107, 80
2023/06/15 08:08:28.045, 92, 107, 75
2023/06/15 08:08:29.180, 90, 108, 71
2023/06/15 08:08:30.300, 91, 106, 67
2023/06/15 08:08:31.435, 92, 108, 68
2023/06/15 08:08:32.556, 89, 104, 68
2023/06/15 08:08:33.691, 90, 107, 68
2023/06/15 08:08:34.812, 91, 107, 66
2023/06/15 08:08:35.948, 94, 104, 68
2023/06/15 08:08:37.068, 96, 104, 70
2023/06/15 08:08:38.203, 91, 105, 70
2023/06/15 08:08:39.340, 91, 103, 69
2023/06/15 08:08:40.459, 90, 106, 67
2023/06/15 08:08:41.596, 93, 101, 69
2023/06/15 08:08:42.715, 93, 103, 68
2023/06/15 08:08:43.851, 94, 103, 69
2023/06/15 08:08:44.971, 94, 107, 70
2023/06/15 08:08:46.107, 92, 107, 69
2023/06/15 08:08:47.226, 92, 108, 71
2023/06/15 08:08:48.363, 94, 106, 68
2023/06/15 08:08:49.483, 94, 108, 69
2023/06/15 08:08:50.619, 91, 107, 70
2023/06/15 08:08:51.739, 89, 105, 68
2023/06/15 08:08:52.875, 92, 102, 70
2023/06/15 08:08:54.011, 90, 103, 65
2023/06/15 08:08:55.131, 94, 106, 69
2023/06/15 08:08:56.267, 90, 104, 69
2023/06/15 08:08:57.387, 93, 103, 69
2023/06/15 08:08:58.522, 92, 106, 70
2023/06/15 08:08:59.642, 94, 108, 67
2023/06/15 08:09:00.778, 97, 108, 67
2023/06/15 08:09:01.898, 91, 105, 65
2023/06/15 08:09:03.034, 94, 106, 71
2023/06/15 08:09:04.154, 93, 105, 68
2023/06/15 08:09:05.289, 93, 108, 69
2023/06/15 08:09:06.425, 91, 106, 67
2023/06/15 08:09:07.546, 92, 104, 67
2023/06/15 08:09:08.682, 93, 108, 69
2023/06/15 08:09:09.801, 90, 101, 69
2023/06/15 08:09:10.937, 91, 99, 68
2023/06/15 08:09:12.057, 93, 103, 62
2023/06/15 08:09:13.193, 94, 104, 67
2023/06/15 08:09:14.313, 96, 103, 66
2023/06/15 08:09:15.449, 90, 102, 69
2023/06/15 08:09:16.569, 94, 104, 71
2023/06/15 08:09:17.705, 92, 105, 70
2023/06/15 08:09:18.841, 93, 106, 66
2023/06/15 08:09:19.961, 93, 106, 69
2023/06/15 08:09:21.097, 94, 103, 72
2023/06/15 08:09:22.217, 93, 100, 69
2023/06/15 08:09:23.352, 89, 104, 80
2023/06/15 08:09:24.472, 94, 101, 87
2023/06/15 08:09:25.608, 94, 102, 70
2023/06/15 08:09:26.728, 92, 103, 69
2023/06/15 08:09:27.865, 94, 105, 67
2023/06/15 08:09:28.984, 89, 104, 65
2023/06/15 08:09:30.120, 92, 100, 64
2023/06/15 08:09:31.240, 90, 100, 70
2023/06/15 08:09:32.376, 90, 100, 67
2023/06/15 08:09:33.495, 91, 105, 69
2023/06/15 08:09:34.632, 90, 103, 68
2023/06/15 08:09:35.767, 89, 103, 68
2023/06/15 08:09:36.888, 90, 104, 67
2023/06/15 08:09:38.024, 92, 99, 69
2023/06/15 08:09:39.144, 90, 101, 67
2023/06/15 08:09:40.280, 96, 100, 69
2023/06/15 08:09:41.400, 93, 100, 69
2023/06/15 08:09:42.535, 94, 103, 70
2023/06/15 08:09:43.656, 92, 117, 66
2023/06/15 08:09:44.792, 90, 107, 69
2023/06/15 08:09:45.911, 92, 113, 66
2023/06/15 08:09:47.048, 93, 106, 70
2023/06/15 08:09:48.167, 92, 106, 69
2023/06/15 08:09:49.303, 92, 102, 69
2023/06/15 08:09:50.439, 87, 104, 64
2023/06/15 08:09:51.559, 91, 99, 67
2023/06/15 08:09:52.695, 91, 96, 69
2023/06/15 08:09:53.815, 92, 103, 66
2023/06/15 08:09:54.951, 91, 101, 64
2023/06/15 08:09:56.071, 92, 101, 66
2023/06/15 08:09:57.207, 91, 104, 66
2023/06/15 08:09:58.327, 89, 104, 67
2023/06/15 08:09:59.463, 90, 102, 66
2023/06/15 08:10:00.583, 91, 101, 67
2023/06/15 08:10:01.719, 88, 101, 67
2023/06/15 08:10:02.839, 90, 103, 65
2023/06/15 08:10:03.975, 89, 101, 68
2023/06/15 08:10:05.110, 90, 100, 64
2023/06/15 08:10:06.230, 89, 102, 67
2023/06/15 08:10:07.366, 91, 100, 68
2023/06/15 08:10:08.486, 90, 102, 67
2023/06/15 08:10:09.622, 92, 101, 64
2023/06/15 08:10:10.742, 90, 102, 68
2023/06/15 08:10:11.877, 92, 105, 67
2023/06/15 08:10:12.998, 91, 103, 65
2023/06/15 08:10:14.134, 92, 106, 67
2023/06/15 08:10:15.254, 93, 103, 68
2023/06/15 08:10:16.389, 91, 100, 69
2023/06/15 08:10:17.525, 93, 102, 65
2023/06/15 08:10:18.646, 91, 101, 68
2023/06/15 08:10:19.781, 87, 104, 63
2023/06/15 08:10:20.901, 93, 99, 68
2023/06/15 08:10:22.038, 89, 100, 66
2023/06/15 08:10:23.157, 90, 101, 69
2023/06/15 08:10:24.293, 89, 102, 69
2023/06/15 08:10:25.413, 91, 102, 63
2023/06/15 08:10:26.549, 91, 101, 66
2023/06/15 08:10:27.669, 92, 101, 65
2023/06/15 08:10:28.805, 91, 103, 69
2023/06/15 08:10:29.925, 89, 102, 66
2023/06/15 08:10:31.061, 89, 100, 64
2023/06/15 08:10:32.181, 86, 99, 66
2023/06/15 08:10:33.317, 87, 97, 68
2023/06/15 08:10:34.437, 90, 98, 67
2023/06/15 08:10:35.572, 90, 99, 66
2023/06/15 08:10:36.693, 90, 100, 67
2023/06/15 08:10:37.828, 91, 98, 65
2023/06/15 08:10:38.948, 91, 99, 67
2023/06/15 08:10:40.084, 88, 102, 72
2023/06/15 08:10:41.204, 90, 99, 69
2023/06/15 08:10:42.340, 89, 99, 63
2023/06/15 08:10:43.460, 88, 99, 68
2023/06/15 08:10:44.596, 88, 97, 65
2023/06/15 08:10:45.716, 90, 98, 68
2023/06/15 08:10:46.852, 91, 99, 70
2023/06/15 08:10:47.972, 88, 102, 67
2023/06/15 08:10:49.108, 88, 102, 67
2023/06/15 08:10:50.228, 86, 104, 66
2023/06/15 08:10:51.364, 90, 100, 66
2023/06/15 08:10:52.500, 91, 101, 65
2023/06/15 08:10:53.619, 92, 98, 68
2023/06/15 08:10:54.755, 88, 99, 64
2023/06/15 08:10:55.875, 86, 101, 64
2023/06/15 08:10:57.011, 91, 102, 64
2023/06/15 08:10:58.131, 91, 102, 64
2023/06/15 08:10:59.267, 89, 104, 67
2023/06/15 08:11:00.387, 89, 100, 66
2023/06/15 08:11:01.523, 91, 99, 67
2023/06/15 08:11:02.643, 89, 98, 65
2023/06/15 08:11:03.779, 90, 102, 65
2023/06/15 08:11:04.898, 93, 100, 90
2023/06/15 08:11:06.034, 92, 104, 77
2023/06/15 08:11:07.154, 88, 103, 65
2023/06/15 08:11:08.291, 90, 109, 67
2023/06/15 08:11:09.426, 91, 106, 64
2023/06/15 08:11:10.546, 89, 103, 66
2023/06/15 08:11:11.682, 89, 101, 67
2023/06/15 08:11:12.802, 88, 101, 65
2023/06/15 08:11:13.938, 88, 98, 64
2023/06/15 08:11:15.058, 90, 98, 67
2023/06/15 08:11:16.194, 86, 99, 67
2023/06/15 08:11:17.314, 88, 101, 65
2023/06/15 08:11:18.450, 90, 122, 66
2023/06/15 08:11:19.570, 87, 105, 64
2023/06/15 08:11:20.705, 90, 97, 64
2023/06/15 08:11:21.826, 90, 99, 67
2023/06/15 08:11:22.961, 89, 101, 63
2023/06/15 08:11:24.082, 89, 106, 64
2023/06/15 08:11:25.217, 91, 99, 63
2023/06/15 08:11:26.338, 87, 98, 66
2023/06/15 08:11:27.473, 88, 101, 65
2023/06/15 08:11:28.593, 90, 100, 67
2023/06/15 08:11:29.729, 86, 97, 69
2023/06/15 08:11:30.849, 88, 100, 67
2023/06/15 08:11:31.985, 90, 98, 68
2023/06/15 08:11:33.105, 87, 98, 66
2023/06/15 08:11:34.241, 89, 99, 65
2023/06/15 08:11:35.361, 91, 98, 65
2023/06/15 08:11:36.497, 90, 101, 65
2023/06/15 08:11:37.617, 90, 97, 66
2023/06/15 08:11:38.752, 88, 98, 64
2023/06/15 08:11:39.873, 89, 98, 61
2023/06/15 08:11:41.009, 87, 99, 64
2023/06/15 08:11:42.128, 89, 99, 70
2023/06/15 08:11:43.265, 90, 96, 61
2023/06/15 08:11:44.384, 87, 99, 64